TimeEST,TemperatureF,Dew PointF,Humidity,Sea Level PressureIn,VisibilityMPH,Wind Direction,Wind SpeedMPH,Gust SpeedMPH,PrecipitationIn,Events,Conditions,WindDirDegrees,DateUTC
12:53 AM,62.1,61.0,96,30.18,10.0,East,4.6,-,N/A,,Overcast,80,2013-12-09 05:53:00
1:53 AM,62.1,61.0,96,30.16,4.0,ESE,5.8,-,N/A,,Overcast,110,2013-12-09 06:53:00
2:00 AM,62.6,62.6,100,30.16,3.0,ESE,4.6,-,N/A,,Overcast,120,2013-12-09 07:00:00
2:53 AM,62.1,61.0,96,30.15,7.0,SE,6.9,-,N/A,,Overcast,130,2013-12-09 07:53:00
3:53 AM,63.0,62.1,97,30.14,7.0,SE,5.8,-,N/A,,Overcast,130,2013-12-09 08:53:00
4:53 AM,63.0,63.0,100,30.13,8.0,SE,3.5,-,N/A,,Overcast,130,2013-12-09 09:53:00
5:35 AM,64.4,62.6,94,30.13,2.5,SSE,5.8,-,N/A,,Overcast,150,2013-12-09 10:35:00
5:42 AM,64.4,64.4,100,30.13,3.0,SSE,5.8,-,N/A,,Overcast,150,2013-12-09 10:42:00
5:51 AM,64.4,64.4,100,30.13,2.5,SSE,6.9,-,N/A,,Overcast,150,2013-12-09 10:51:00
5:53 AM,64.0,64.0,100,30.13,2.5,SSE,6.9,-,N/A,,Overcast,150,2013-12-09 10:53:00
6:39 AM,64.4,64.4,100,30.14,3.0,SSE,5.8,-,N/A,,Overcast,150,2013-12-09 11:39:00
6:53 AM,64.9,64.0,97,30.14,3.0,SSE,3.5,-,N/A,,Overcast,150,2013-12-09 11:53:00
7:32 AM,64.4,64.4,100,30.15,1.8,SSE,6.9,-,0.00,Rain,Light Rain,160,2013-12-09 12:32:00
7:53 AM,64.9,64.9,100,30.14,1.8,SSE,6.9,-,0.00,,Overcast,160,2013-12-09 12:53:00
8:33 AM,66.2,66.2,100,30.14,2.0,South,8.1,-,0.00,,Overcast,170,2013-12-09 13:33:00
8:53 AM,66.9,66.0,97,30.14,3.0,South,6.9,-,0.00,,Overcast,190,2013-12-09 13:53:00
9:42 AM,66.2,66.2,100,30.16,2.0,South,6.9,-,N/A,,Overcast,180,2013-12-09 14:42:00
9:49 AM,68.0,66.2,94,30.16,1.8,South,5.8,-,N/A,,Overcast,190,2013-12-09 14:49:00
9:53 AM,68.0,66.9,96,30.16,2.0,South,8.1,-,N/A,,Overcast,190,2013-12-09 14:53:00
10:10 AM,68.0,66.2,94,30.17,3.0,SSW,5.8,-,N/A,,Overcast,200,2013-12-09 15:10:00
10:25 AM,68.0,66.2,94,30.17,2.5,SSW,6.9,-,N/A,,Overcast,200,2013-12-09 15:25:00
10:53 AM,69.1,68.0,96,30.17,3.0,SSW,5.8,-,N/A,,Overcast,210,2013-12-09 15:53:00
11:53 AM,73.0,68.0,84,30.15,10.0,SSW,9.2,-,N/A,,Overcast,210,2013-12-09 16:53:00
11:54 AM,73.4,68.0,83,30.15,10.0,SW,8.1,-,N/A,,Overcast,220,2013-12-09 16:54:00
12:53 PM,75.9,66.9,74,30.12,10.0,SW,12.7,-,N/A,,Mostly Cloudy,220,2013-12-09 17:53:00
1:38 PM,78.8,66.2,65,30.09,10.0,SSW,12.7,-,N/A,,Mostly Cloudy,200,2013-12-09 18:38:00
1:53 PM,78.1,66.0,66,30.08,10.0,SSW,12.7,-,N/A,,Overcast,210,2013-12-09 18:53:00
2:53 PM,79.0,64.9,62,30.06,10.0,SSW,11.5,19.6,N/A,,Mostly Cloudy,210,2013-12-09 19:53:00
3:00 PM,80.6,66.2,61,30.06,10.0,SSW,11.5,-,N/A,,Mostly Cloudy,200,2013-12-09 20:00:00
3:53 PM,79.0,64.9,62,30.05,10.0,SSW,13.8,-,N/A,,Overcast,200,2013-12-09 20:53:00
4:35 PM,73.4,68.0,83,30.07,3.0,WSW,12.7,-,0.05,Rain,Heavy Rain,250,2013-12-09 21:35:00
4:42 PM,73.4,69.8,88,30.07,3.0,WSW,8.1,-,0.05,Rain,Light Rain,250,2013-12-09 21:42:00
4:53 PM,73.0,69.1,87,30.06,10.0,WSW,6.9,-,0.05,,Overcast,240,2013-12-09 21:53:00
5:53 PM,71.1,69.1,93,30.08,10.0,SW,3.5,-,0.00,Rain,Light Rain,220,2013-12-09 22:53:00
6:04 PM,71.6,69.8,94,30.09,10.0,WNW,5.8,-,0.00,Rain,Light Rain,300,2013-12-09 23:04:00
6:45 PM,69.8,69.8,100,30.09,10.0,NW,9.2,-,0.00,,Overcast,310,2013-12-09 23:45:00
6:53 PM,70.0,69.1,97,30.10,5.0,NW,6.9,-,0.01,Rain,Light Rain,310,2013-12-09 23:53:00
7:15 PM,69.8,68.0,94,30.10,4.0,Calm,Calm,-,0.02,Rain,Rain,0,2013-12-10 00:15:00
7:53 PM,69.1,68.0,96,30.10,10.0,Calm,Calm,-,0.02,,Overcast,0,2013-12-10 00:53:00
8:42 PM,68.0,68.0,100,30.10,1.8,Calm,Calm,-,N/A,,Mostly Cloudy,0,2013-12-10 01:42:00
8:48 PM,68.0,66.2,94,30.10,0.8,Calm,Calm,-,N/A,,Scattered Clouds,0,2013-12-10 01:48:00
8:53 PM,66.9,66.9,100,30.09,0.5,Calm,Calm,-,N/A,Fog,Fog,0,2013-12-10 01:53:00
9:12 PM,68.0,68.0,100,30.10,1.2,South,3.5,-,N/A,,Overcast,180,2013-12-10 02:12:00
9:18 PM,68.0,68.0,100,30.10,3.0,SSE,4.6,-,N/A,,Overcast,160,2013-12-10 02:18:00
9:28 PM,68.0,68.0,100,30.09,7.0,SSE,3.5,-,N/A,,Overcast,150,2013-12-10 02:28:00
9:49 PM,68.0,68.0,100,30.09,6.0,Calm,Calm,-,0.00,Rain,Light Rain,0,2013-12-10 02:49:00
9:53 PM,68.0,68.0,100,30.09,4.0,Calm,Calm,-,0.01,Rain,Rain,0,2013-12-10 02:53:00
9:59 PM,68.0,68.0,100,30.09,3.0,Calm,Calm,-,0.00,Rain,Light Rain,0,2013-12-10 02:59:00
10:06 PM,68.0,68.0,100,30.08,6.0,Calm,Calm,-,0.00,Rain,Light Rain,0,2013-12-10 03:06:00
10:15 PM,68.0,68.0,100,30.08,8.0,Calm,Calm,-,0.00,,Overcast,0,2013-12-10 03:15:00
10:53 PM,69.1,68.0,96,30.07,3.0,Calm,Calm,-,0.02,Rain,Heavy Rain,0,2013-12-10 03:53:00
10:58 PM,69.8,68.0,94,30.07,2.5,Calm,Calm,-,0.01,Rain,Heavy Rain,0,2013-12-10 03:58:00
11:07 PM,69.8,68.0,94,30.07,1.0,South,4.6,-,0.30,Rain,Heavy Rain,170,2013-12-10 04:07:00
11:12 PM,69.8,68.0,94,30.07,0.8,South,4.6,-,0.37,Rain,Heavy Rain,190,2013-12-10 04:12:00
11:22 PM,69.8,69.8,100,30.07,1.0,SSW,6.9,-,0.57,Rain,Heavy Rain,210,2013-12-10 04:22:00
11:39 PM,69.8,69.8,100,30.07,3.0,WSW,6.9,-,0.70,Rain,Light Rain,240,2013-12-10 04:39:00
11:53 PM,69.1,68.0,96,30.07,1.8,SW,9.2,-,0.78,Rain,Heavy Rain,230,2013-12-10 04:53:00